Vorticity
20 21 21 22 22 22 22 22 22 22 22 22 22 22 22 22 22 22 22 23 22 22 22 22 22 21 20 19 18 17 15 13 12 10 9 8 7 7 6 6 6 7 7 7 8 8 8 9 9 9 9 9 9 9 9 10 11 13 14 12 8 6 7 10 13 14 14 14 12
18 18 18 18 18 18 18 19 19 19 19 19 19 19 19 19 19 19 20 21 21 22 22 23 24 24 23 23 23 22 21 19 17 15 13 11 9 8 7 6 6 6 7 7 7 8 9 9 10 11 11 11 11 11 11 11 13 14 14 11 6 6 8 12 13 15 15 14 11
13 13 13 12 12 12 12 12 12 12 12 12 12 12 12 13 13 14 15 16 17 18 19 20 21 22 23 23 24 25 25 24 23 21 18 16 13 11 9 8 7 7 6 6 7 7 8 9 10 10 11 12 12 12 12 12 14 15 14 9 6 7 10 13 15 15 14 12 9
8 8 8 7 7 7 6 6 6 6 6 6 6 6 6 7 7 8 9 10 11 13 15 16 18 19 21 22 22 24 25 26 26 25 23 21 18 16 13 11 9 8 7 6 6 7 7 8 9 9 10 11 12 13 14 15 16 15 12 7 6 8 11 15 16 15 12 10 8
5 5 4 4 4 3 3 3 3 3 3 2 2 3 3 3 3 4 5 6 7 9 10 12 13 15 17 20 21 22 24 25 27 27 27 25 23 21 18 15 13 11 9 8 7 7 7 7 7 8 8 10 12 14 16 17 18 15 11 6 7 9 13 16 16 14 11 9 8
3 3 3 3 2 2 2 2 2 2 2 2 2 2 2 2 2 2 2 3 4 5 6 7 9 10 12 15 17 19 21 24 26 27 28 28 27 25 23 20 17 14 12 10 9 8 7 7 6 6 7 8 12 15 18 20 19 14 9 5 8 11 15 17 15 12 10 8 9
4 4 4 4 4 4 4 4 4 4 4 3 3 3 3 3 3 2 2 2 2 3 3 4 6 7 8 10 12 14 17 20 22 25 27 28 28 28 27 24 21 19 16 14 12 10 8 7 6 5 5 6 12 17 21 22 18 12 7 6 10 13 16 16 13 11 9 8 9
5 5 5 5 5 5 5 5 5 5 5 5 5 5 4 4 4 4 4 3 3 3 2 3 3 4 5 7 9 11 13 15 17 20 23 26 27 28 28 27 25 23 21 18 15 13 11 9 7 5 5 5 11 17 22 22 16 9 6 7 12 15 16 15 12 10 9 9 8
5 5 5 5 5 5 5 5 5 5 5 5 5 5 5 5 5 5 5 4 4 4 3 3 3 3 4 5 6 8 9 11 14 16 19 22 24 26 27 28 27 26 24 22 20 17 14 12 9 6 4 4 9 16 21 20 12 7 6 9 14 16 15 13 10 9 9 8 8
5 5 5 5 5 5 5 5 5 5 5 5 5 5 5 5 5 5 5 5 5 5 5 5 4 4 4 4 5 6 7 9 11 13 16 19 21 23 25 26 27 26 26 25 23 21 18 16 12 9 6 4 7 14 18 16 9 6 6 11 15 16 14 12 10 9 8 8 7
5 5 5 5 5 4 4 4 4 4 4 4 5 5 5 5 5 5 6 6 6 6 6 6 6 6 6 5 5 5 6 7 9 10 13 15 18 21 23 24 26 26 26 26 25 24 23 20 16 12 9 5 6 11 14 12 7 6 8 12 14 15 13 11 9 8 8 7 7
5 5 5 4 4 4 4 4 4 4 4 4 5 5 5 5 5 5 6 6 6 6 7 7 6 7 7 6 6 6 6 6 7 9 10 12 15 18 20 22 24 25 26 26 26 26 26 24 21 17 13 8 6 8 10 9 6 7 9 13 14 14 13 10 9 8 8 7 6
5 5 5 5 5 5 5 5 5 5 4 5 5 5 5 5 5 5 6 6 6 7 7 7 7 7 7 7 7 7 6 7 7 8 9 10 12 15 17 19 21 23 24 25 26 27 27 27 26 22 18 13 8 6 6 6 6 8 11 14 14 14 12 10 9 8 8 6 6
5 5 5 5 5 5 5 5 5 5 5 5 5 5 5 5 5 6 6 6 6 6 7 7 7 7 7 7 7 7 7 7 7 8 9 9 11 13 15 17 19 21 22 23 25 26 28 29 28 26 23 18 12 7 5 4 6 9 12 15 15 14 12 9 9 8 7 6 5
6 6 6 6 6 6 6 6 6 6 5 5 5 5 5 5 5 6 6 6 6 6 6 7 7 7 7 7 7 7 7 7 7 8 8 9 10 11 13 15 17 18 20 21 23 25 27 29 30 29 27 22 16 10 6 4 6 10 14 16 15 13 11 9 8 7 6 6 5
7 7 7 6 6 6 7 6 6 6 6 6 6 6 6 6 6 6 6 6 6 6 6 6 7 7 7 7 7 7 7 7 7 7 8 9 10 11 12 13 15 16 18 20 22 24 26 28 29 29 28 25 20 14 9 6 8 12 15 17 15 12 10 8 7 7 6 5 4
8 7 7 7 7 7 7 7 7 7 7 7 7 6 6 6 6 7 7 7 7 7 7 6 6 7 7 7 7 7 7 7 7 7 7 8 9 10 11 12 13 15 16 18 20 22 24 26 27 28 28 26 22 17 13 10 12 15 17 17 14 11 9 7 6 6 5 4 4
8 8 8 8 8 8 8 8 8 8 8 7 7 7 7 7 7 7 7 7 7 7 7 7 7 7 7 7 7 7 7 7 7 7 7 7 8 9 10 11 12 14 15 17 19 20 22 23 24 25 25 25 22 19 16 15 16 17 17 15 12 9 7 6 6 5 4 4 4
9 9 9 9 9 9 9 9 8 8 8 8 8 8 8 8 8 8 8 8 8 8 8 8 7 7 7 7 7 7 7 8 7 7 7 7 8 9 10 11 11 13 14 16 17 18 19 20 21 21 22 22 21 20 19 18 18 17 16 13 10 8 6 5 5 4 4 3 3
9 9 9 9 9 9 9 9 9 9 8 8 8 8 8 8 9 9 9 9 9 9 9 9 8 8 7 7 7 7 8 8 8 8 7 7 7 8 9 10 11 12 13 14 15 16 17 17 17 18 19 19 19 19 19 18 17 15 13 10 8 6 5 4 4 4 3 3 4
8 8 8 8 8 9 9 9 9 9 9 8 8 8 8 9 9 9 9 9 9 9 9 9 9 9 8 8 8 8 8 8 8 8 8 8 7 8 8 8 9 10 12 13 13 13 14 14 14 15 15 16 16 16 16 15 14 12 10 8 7 5 4 4 3 3 4 4 4
7 7 7 7 8 8 9 9 9 9 9 9 8 8 9 9 9 9 9 9 9 10 10 10 10 9 9 9 8 8 8 8 9 9 9 9 8 8 8 8 8 9 10 11 11 11 11 11 11 11 12 12 13 13 12 12 11 9 8 7 6 5 4 4 4 4 4 5 5
7 7 7 7 7 8 9 9 9 9 9 9 9 9 9 9 9 9 9 10 10 10 10 10 10 10 10 9 9 9 9 9 9 9 9 9 9 9 8 8 8 8 9 9 10 10 10 9 9 9 9 10 10 10 10 9 9 8 7 6 5 5 4 4 4 5 5 6 6
7 7 7 7 8 8 9 10 10 10 10 9 9 9 9 9 9 9 10 10 10 10 10 10 10 10 10 10 10 9 9 9 9 9 10 10 10 9 9 9 9 8 8 8 8 9 9 9 9 8 8 8 8 8 8 8 8 7 7 6 6 5 5 5 6 6 7 7 7
7 7 8 8 9 9 10 11 11 11 10 9 9 9 9 9 10 10 10 10 11 11 11 11 11 11 11 10 10 10 10 10 10 9 9 10 10 10 10 10 9 9 8 8 8 8 8 8 9 8 8 8 8 8 8 7 7 7 6 6 6 6 7 7 7 7 8 8 8
8 8 9 9 10 10 11 12 12 12 11 10 9 9 10 10 11 11 11 11 12 12 12 12 12 11 11 11 11 10 10 10 10 10 10 10 10 10 10 10 10 10 9 9 8 8 8 8 8 8 8 8 8 8 8 8 7 7 7 7 7 7 8 8 8 9 9 9 9
9 9 10 10 11 12 13 13 13 12 11 10 10 10 11 11 12 12 13 13 13 13 13 13 13 12 12 12 11 11 10 10 10 10 10 10 10 10 10 10 10 10 10 10 9 9 8 8 8 8 8 8 8 8 8 8 8 8 8 8 8 9 9 9 9 9 9 9 9
10 10 10 10 12 13 13 13 14 13 12 11 11 11 12 13 13 14 14 14 14 14 14 13 13 13 13 12 12 11 11 10 10 10 10 10 10 10 10 10 10 10 10 10 10 10 9 9 8 8 8 7 7 7 7 8 8 8 8 9 9 9 9 9 9 9 9 9 9
9 9 10 11 12 13 14 15 14 13 12 12 12 13 14 14 14 14 14 14 14 14 14 14 14 14 13 13 12 12 11 10 10 10 10 10 11 11 10 10 10 10 10 10 11 11 10 10 10 10 9 9 8 7 7 6 7 8 8 8 9 9 9 9 9 9 9 10 10
9 10 11 12 13 14 14 15 14 13 12 13 13 14 15 15 15 15 14 14 14 14 14 14 14 14 13 13 13 12 11 10 10 10 10 10 11 11 11 11 11 11 11 10 10 11 11 11 11 11 11 11 10 10 8 7 7 7 8 8 9 9 9 9 9 9 9 10 10
10 11 12 12 13 14 14 14 13 13 13 13 14 15 15 15 14 14 14 14 14 14 14 14 14 13 13 13 12 12 11 11 10 10 10 10 10 11 11 11 11 11 11 11 11 11 11 11 11 12 12 12 12 12 11 10 9 8 8 8 9 9 10 9 9 10 10 10 10
11 12 12 13 14 14 14 14 13 13 13 14 14 14 14 14 14 13 13 13 13 13 13 14 13 13 13 12 12 12 11 11 10 10 9 9 10 10 11 11 12 12 12 12 12 12 12 12 12 12 12 12 13 13 13 12 11 10 10 9 10 10 10 10 10 10 10 10 10
12 13 13 14 14 14 14 14 13 13 13 13 14 14 14 13 13 13 13 13 13 13 13 13 13 13 12 12 12 12 11 11 10 10 10 9 10 10 11 11 12 13 13 13 13 13 13 13 12 12 12 12 12 12 13 13 13 12 11 11 11 11 11 11 11 11 11 11 11
13 14 14 15 14 14 14 13 13 13 13 13 13 13 13 12 12 12 13 13 13 13 13 13 13 13 12 12 12 12 11 11 10 10 10 10 10 10 10 11 12 13 14 15 15 15 14 14 14 14 13 13 13 13 13 13 13 13 12 12 11 11 11 12 12 12 12 12 12
14 15 15 15 15 14 13 13 12 12 12 12 12 13 13 13 12 12 12 13 13 13 13 13 13 13 12 12 12 12 12 11 11 11 10 10 10 10 11 12 13 14 15 16 16 16 16 16 15 15 15 14 14 14 13 13 13 13 13 12 12 12 12 12 12 12 12 12 12
16 16 15 15 14 14 13 12 12 12 12 12 12 12 12 13 13 13 12 12 13 13 13 13 13 12 12 12 12 12 12 12 12 12 11 11 11 12 12 13 13 15 16 17 17 17 17 17 17 16 16 16 15 15 15 14 14 14 13 13 13 13 12 12 12 13 13 13 13
17 16 15 14 14 14 13 12 12 12 12 12 12 12 12 12 12 12 13 13 13 13 13 13 12 12 12 12 12 12 12 12 12 13 13 13 13 14 14 14 15 16 16 17 17 17 18 18 17 17 17 17 17 16 16 15 15 15 15 15 15 14 14 13 13 13 13 13 13
17 16 15 14 14 13 13 12 12 12 12 12 12 12 12 12 12 12 13 13 13 13 13 12 12 12 12 12 12 13 13 13 13 14 15 15 15 16 16 16 17 17 17 17 18 18 18 18 18 18 18 17 17 17 16 16 16 16 16 16 16 16 15 15 14 14 13 13 14
17 16 16 14 13 13 12 12 13 12 12 12 12 12 13 13 13 13 13 13 13 13 13 13 12 12 13 13 13 13 14 14 15 16 17 17 17 17 18 18 18 18 18 18 18 18 18 18 18 18 18 18 17 17 16 16 16 16 17 17 17 17 16 16 15 14 14 14 14
17 16 15 15 14 13 13 13 13 13 13 13 13 13 13 13 13 13 13 13 13 13 13 13 14 14 14 14 14 15 16 16 17 17 18 19 19 19 19 19 19 18 18 19 19 19 18 18 18 18 18 17 17 17 16 16 16 16 17 17 17 16 16 16 16 15 15 15 14
16 16 15 15 14 14 13 13 13 13 14 14 14 14 14 14 14 13 13 13 13 13 14 15 15 16 16 16 17 17 18 18 19 19 19 20 20 20 20 20 19 19 18 18 18 18 18 18 17 17 17 17 16 16 16 16 16 16 17 17 16 16 15 15 16 16 16 15 14
Height
5717 5716 5715 5714 5712 5711 5710 5708 5707 5705 5704 5702 5701 5699 5697 5696 5694 5693 5691 5689 5687 5686 5684 5682 5681 5679 5677 5675 5673 5672 5670 5668 5667 5665 5664 5662 5661 5659 5658 5656 5655 5653 5652 5651 5649 5648 5646 5645 5644 5643 5642 5642 5641 5641 5640 5639 5637 5636 5635 5634 5633 5632 5631 5630 5629 5627 5626 5625 5624
5714 5712 5711 5710 5708 5707 5706 5704 5703 5702 5700 5698 5697 5695 5693 5692 5690 5688 5687 5685 5683 5681 5679 5677 5676 5674 5672 5670 5668 5666 5664 5663 5661 5660 5658 5657 5655 5654 5652 5651 5649 5648 5647 5645 5644 5642 5641 5640 5638 5637 5637 5637 5636 5635 5634 5633 5632 5631 5629 5629 5628 5627 5626 5625 5624 5623 5621 5620 5619
5710 5709 5707 5706 5705 5703 5702 5701 5699 5697 5696 5694 5692 5691 5689 5687 5686 5684 5682 5681 5678 5677 5674 5672 5671 5669 5667 5665 5663 5661 5659 5657 5656 5654 5652 5651 5649 5648 5646 5645 5643 5642 5641 5640 5638 5637 5635 5634 5633 5632 5632 5631 5631 5630 5629 5628 5627 5625 5624 5624 5623 5622 5621 5620 5619 5618 5617 5616 5615
5707 5705 5704 5702 5701 5699 5698 5697 5695 5694 5692 5690 5689 5687 5685 5683 5682 5680 5678 5676 5674 5672 5670 5668 5666 5664 5662 5660 5658 5656 5654 5652 5650 5648 5647 5645 5643 5642 5640 5639 5637 5636 5635 5634 5632 5631 5630 5628 5627 5627 5626 5626 5625 5625 5624 5622 5621 5620 5619 5619 5618 5617 5616 5615 5614 5613 5612 5611 5610
5703 5702 5700 5699 5697 5696 5694 5692 5691 5689 5688 5686 5685 5683 5681 5679 5677 5676 5674 5672 5670 5668 5666 5663 5661 5659 5657 5655 5653 5651 5649 5647 5645 5643 5641 5639 5638 5636 5634 5633 5632 5630 5629 5628 5627 5625 5624 5623 5622 5621 5621 5620 5620 5619 5618 5617 5616 5615 5614 5614 5613 5612 5611 5609 5609 5608 5607 5607 5606
5700 5698 5697 5695 5693 5692 5690 5688 5687 5685 5684 5682 5680 5679 5677 5675 5673 5671 5670 5668 5666 5663 5661 5659 5657 5655 5652 5650 5648 5646 5644 5642 5640 5638 5636 5634 5632 5630 5628 5627 5625 5624 5623 5622 5621 5619 5618 5617 5616 5615 5615 5615 5614 5613 5612 5611 5610 5610 5609 5608 5607 5607 5605 5604 5604 5603 5602 5602 5601
5696 5694 5692 5691 5689 5687 5686 5684 5682 5681 5679 5677 5676 5674 5672 5671 5669 5667 5665 5663 5661 5659 5657 5655 5652 5650 5648 5646 5643 5641 5639 5637 5635 5632 5630 5628 5626 5624 5623 5621 5619 5618 5617 5616 5614 5613 5612 5611 5610 5610 5610 5610 5609 5608 5607 5606 5605 5604 5604 5603 5602 5601 5600 5599 5599 5598 5598 5597 5597
5692 5690 5688 5687 5685 5683 5682 5680 5678 5676 5675 5673 5671 5669 5668 5666 5664 5662 5660 5658 5657 5655 5652 5650 5648 5646 5643 5641 5639 5637 5634 5632 5630 5628 5626 5623 5621 5619 5617 5615 5613 5612 5611 5610 5608 5607 5606 5605 5605 5604 5604 5604 5603 5602 5601 5601 5600 5599 5599 5598 5597 5596 5595 5595 5594 5594 5593 5592 5592
5688 5686 5684 5682 5681 5679 5677 5675 5674 5672 5670 5668 5667 5665 5663 5661 5659 5657 5656 5654 5652 5650 5648 5646 5643 5641 5639 5637 5635 5632 5630 5627 5625 5623 5621 5618 5616 5614 5612 5610 5608 5606 5605 5603 5602 5601 5600 5599 5599 5599 5599 5598 5597 5597 5596 5595 5595 5594 5594 5593 5592 5591 5590 5590 5589 5589 5588 5587 5587
5684 5682 5681 5679 5677 5675 5673 5671 5669 5668 5666 5664 5662 5660 5658 5657 5654 5652 5651 5649 5647 5645 5643 5641 5639 5637 5634 5632 5630 5628 5625 5623 5621 5618 5616 5614 5612 5609 5607 5605 5603 5601 5599 5598 5596 5595 5594 5593 5593 5593 5593 5592 5592 5591 5591 5590 5590 5589 5588 5587 5587 5586 5585 5585 5585 5584 5583 5583 5582
5681 5679 5677 5675 5673 5671 5669 5667 5666 5664 5662 5660 5658 5656 5654 5652 5650 5648 5646 5644 5642 5641 5638 5636 5634 5632 5630 5628 5626 5623 5621 5618 5616 5614 5612 5609 5607 5605 5602 5600 5598 5596 5594 5592 5591 5589 5588 5588 5588 5587 5587 5587 5586 5586 5585 5585 5584 5584 5583 5582 5582 5581 5581 5580 5580 5579 5578 5578 5577
5677 5675 5673 5671 5669 5667 5665 5663 5662 5660 5658 5656 5654 5652 5650 5648 5646 5644 5642 5640 5638 5636 5634 5632 5629 5627 5625 5623 5621 5618 5616 5614 5611 5609 5607 5605 5602 5600 5597 5595 5593 5591 5588 5587 5585 5584 5583 5582 5582 5582 5581 5581 5581 5580 5580 5579 5579 5579 5578 5577 5577 5576 5576 5576 5575 5574 5573 5573 5572
5672 5671 5669 5667 5665 5663 5661 5659 5657 5656 5654 5652 5650 5647 5646 5643 5642 5639 5637 5636 5634 5632 5629 5627 5625 5622 5620 5618 5616 5614 5612 5609 5607 5605 5602 5600 5598 5595 5593 5590 5588 5586 5583 5582 5580 5578 5577 5577 5576 5576 5576 5575 5575 5575 5574 5574 5574 5574 5573 5572 5572 5572 5571 5571 5570 5569 5568 5568 5567
5668 5666 5664 5662 5661 5659 5657 5655 5653 5651 5649 5647 5645 5643 5641 5639 5637 5635 5633 5631 5629 5627 5625 5622 5620 5618 5615 5613 5611 5609 5607 5605 5602 5600 5598 5596 5593 5591 5588 5586 5583 5581 5579 5577 5575 5573 5572 5571 5570 5570 5570 5569 5569 5569 5569 5569 5568 5568 5568 5567 5567 5567 5566 5566 5565 5564 5563 5563 5562
5664 5662 5660 5658 5656 5654 5652 5651 5649 5647 5645 5642 5640 5638 5637 5635 5633 5631 5629 5627 5625 5623 5621 5618 5616 5613 5611 5608 5606 5604 5602 5600 5598 5596 5593 5591 5589 5586 5584 5582 5579 5577 5574 5572 5570 5568 5567 5566 5565 5564 5564 5564 5564 5563 5563 5563 5563 5563 5563 5562 5562 5562 5561 5561 5560 5559 5558 5558 5557
5659 5657 5655 5653 5651 5650 5648 5646 5644 5642 5640 5637 5635 5633 5632 5630 5628 5626 5624 5622 5620 5618 5616 5614 5612 5609 5606 5604 5602 5599 5597 5596 5594 5592 5589 5587 5584 5582 5580 5577 5575 5572 5570 5568 5566 5564 5563 5561 5560 5559 5559 5558 5558 5558 5558 5558 5558 5558 5558 5557 5557 5557 5556 5556 5555 5554 5553 5553 5552
5655 5652 5651 5648 5647 5645 5643 5641 5639 5637 5635 5632 5630 5628 5626 5624 5622 5621 5619 5617 5615 5613 5611 5609 5607 5604 5602 5599 5597 5595 5592 5591 5589 5587 5585 5582 5580 5578 5575 5573 5571 5568 5566 5564 5562 5560 5558 5557 5556 5555 5554 5554 5553 5553 5553 5553 5553 5553 5553 5552 5552 5552 5551 5550 5550 5549 5548 5547 5547
5650 5648 5646 5644 5642 5640 5638 5636 5634 5632 5629 5627 5625 5623 5621 5619 5617 5615 5614 5612 5610 5608 5606 5604 5602 5600 5597 5595 5592 5590 5588 5586 5584 5582 5580 5578 5576 5573 5571 5569 5567 5564 5562 5560 5558 5556 5555 5553 5552 5551 5550 5549 5549 5549 5548 5548 5548 5548 5548 5547 5547 5547 5546 5545 5544 5544 5543 5542 5542
5646 5643 5642 5639 5637 5635 5633 5631 5629 5627 5624 5622 5620 5617 5615 5613 5612 5610 5608 5606 5604 5602 5601 5599 5597 5595 5592 5590 5587 5585 5583 5581 5579 5577 5575 5573 5571 5569 5567 5565 5562 5560 5558 5556 5554 5552 5551 5549 5548 5547 5546 5545 5545 5544 5544 5543 5543 5543 5543 5543 5542 5542 5541 5540 5539 5539 5538 5537 5536
5641 5639 5637 5635 5632 5631 5628 5626 5624 5622 5619 5617 5614 5612 5610 5608 5606 5604 5602 5600 5599 5597 5595 5593 5592 5590 5587 5585 5583 5580 5578 5576 5574 5572 5570 5568 5566 5564 5562 5560 5558 5556 5554 5552 5551 5549 5547 5545 5544 5543 5542 5541 5541 5540 5540 5539 5539 5539 5538 5538 5537 5537 5536 5535 5534 5534 5533 5532 5531
5636 5634 5632 5630 5627 5626 5623 5621 5619 5616 5614 5611 5609 5607 5604 5602 5600 5598 5597 5595 5593 5591 5589 5587 5586 5584 5582 5580 5578 5576 5573 5571 5569 5567 5565 5563 5561 5559 5557 5556 5554 5552 5550 5548 5547 5545 5543 5542 5540 5539 5538 5537 5537 5536 5536 5535 5535 5534 5534 5533 5533 5532 5531 5530 5529 5529 5528 5527 5526
5631 5629 5627 5624 5622 5620 5618 5616 5613 5611 5608 5606 5603 5601 5599 5597 5595 5593 5591 5589 5587 5585 5583 5582 5580 5578 5577 5575 5573 5571 5568 5566 5564 5562 5560 5558 5556 5554 5552 5551 5549 5547 5546 5544 5542 5541 5539 5538 5537 5535 5534 5534 5533 5532 5532 5531 5531 5530 5530 5529 5528 5527 5526 5525 5525 5524 5522 5522 5520
5626 5623 5621 5619 5617 5615 5613 5611 5608 5606 5603 5600 5598 5596 5593 5591 5589 5587 5585 5583 5582 5580 5578 5576 5574 5572 5571 5569 5567 5565 5563 5561 5559 5557 5555 5553 5551 5549 5547 5546 5544 5543 5541 5540 5538 5536 5535 5533 5532 5531 5531 5530 5529 5528 5528 5527 5526 5526 5525 5524 5523 5522 5522 5521 5520 5518 5517 5516 5515
5620 5617 5615 5613 5611 5609 5607 5605 5602 5600 5597 5595 5592 5590 5588 5586 5584 5582 5580 5578 5576 5574 5572 5570 5568 5567 5565 5563 5561 5559 5557 5556 5554 5552 5550 5548 5546 5544 5542 5541 5539 5537 5536 5534 5533 5531 5530 5529 5528 5527 5526 5525 5525 5524 5523 5522 5522 5521 5520 5519 5518 5517 5517 5515 5514 5513 5512 5511 5510
5614 5612 5610 5607 5606 5603 5602 5599 5597 5594 5592 5589 5587 5584 5582 5580 5578 5577 5574 5572 5571 5569 5567 5565 5563 5561 5559 5557 5556 5554 5552 5550 5548 5547 5545 5543 5541 5539 5537 5535 5534 5532 5531 5529 5527 5526 5525 5524 5523 5522 5521 5520 5520 5519 5518 5517 5517 5516 5515 5514 5513 5512 5511 5510 5509 5508 5506 5505 5504
5608 5606 5604 5602 5600 5597 5596 5594 5591 5589 5586 5583 5581 5579 5577 5575 5573 5571 5569 5567 5565 5563 5561 5559 5557 5555 5553 5552 5550 5548 5546 5544 5542 5541 5539 5537 5536 5534 5532 5530 5528 5527 5525 5524 5522 5521 5519 5518 5517 5517 5516 5515 5515 5514 5513 5512 5512 5511 5510 5509 5508 5507 5506 5505 5503 5502 5501 5500 5498
5602 5600 5597 5596 5594 5592 5590 5587 5585 5582 5580 5577 5575 5573 5571 5569 5567 5565 5563 5561 5559 5557 5555 5553 5552 5550 5548 5546 5544 5542 5540 5538 5536 5535 5533 5532 5530 5528 5526 5525 5523 5521 5519 5518 5516 5515 5514 5513 5512 5511 5511 5510 5509 5509 5508 5507 5506 5505 5504 5503 5502 5502 5500 5499 5498 5497 5495 5494 5493
5596 5593 5591 5589 5587 5586 5583 5581 5579 5576 5573 5571 5569 5567 5565 5563 5561 5559 5557 5555 5553 5551 5549 5547 5546 5544 5542 5540 5538 5536 5534 5532 5530 5528 5527 5525 5524 5522 5521 5519 5517 5515 5514 5512 5510 5509 5508 5507 5506 5506 5505 5504 5504 5503 5503 5502 5501 5500 5499 5498 5497 5496 5495 5493 5492 5491 5489 5488 5487
5589 5587 5585 5583 5581 5579 5577 5575 5572 5570 5567 5565 5562 5561 5558 5557 5555 5553 5551 5549 5547 5545 5543 5541 5539 5538 5536 5534 5532 5530 5528 5526 5524 5522 5521 5519 5518 5516 5514 5513 5511 5509 5508 5506 5504 5503 5502 5501 5500 5499 5499 5498 5498 5497 5497 5497 5496 5494 5493 5492 5491 5490 5489 5487 5486 5485 5484 5482 5481
5582 5580 5578 5576 5574 5573 5571 5568 5566 5563 5560 5558 5556 5554 5552 5550 5548 5547 5545 5543 5541 5539 5537 5535 5533 5532 5530 5528 5526 5524 5522 5520 5518 5516 5515 5513 5512 5510 5508 5507 5505 5503 5502 5500 5498 5497 5496 5495 5494 5493 5492 5492 5491 5491 5492 5491 5491 5489 5488 5487 5486 5484 5483 5482 5480 5479 5478 5477 5476
5576 5573 5572 5569 5568 5566 5564 5561 5559 5556 5554 5552 5550 5548 5546 5544 5542 5540 5538 5536 5534 5532 5531 5529 5527 5525 5523 5522 5520 5518 5516 5514 5512 5510 5508 5507 5506 5504 5502 5501 5499 5497 5495 5493 5492 5491 5490 5489 5488 5487 5486 5485 5485 5485 5485 5485 5485 5484 5483 5481 5480 5478 5477 5476 5475 5473 5472 5471 5470
5569 5567 5565 5563 5561 5559 5557 5555 5552 5549 5547 5545 5543 5541 5539 5537 5535 5534 5532 5530 5528 5526 5524 5523 5521 5519 5517 5515 5514 5512 5510 5508 5506 5504 5502 5501 5499 5498 5496 5495 5493 5491 5489 5487 5486 5485 5484 5482 5482 5481 5480 5479 5478 5478 5478 5479 5479 5478 5477 5476 5474 5472 5471 5470 5469 5467 5466 5465 5464
5562 5560 5558 5556 5554 5552 5550 5548 5545 5543 5541 5539 5537 5535 5533 5531 5529 5527 5525 5523 5522 5520 5518 5517 5515 5512 5511 5509 5507 5506 5504 5502 5500 5498 5496 5495 5493 5492 5490 5489 5487 5485 5483 5481 5480 5478 5477 5476 5475 5474 5473 5473 5472 5472 5472 5472 5472 5472 5472 5471 5469 5467 5465 5464 5463 5462 5460 5459 5458
5556 5553 5551 5549 5547 5545 5543 5541 5538 5536 5534 5532 5530 5528 5526 5524 5522 5521 5519 5517 5515 5513 5512 5510 5508 5506 5504 5502 5501 5499 5497 5496 5494 5492 5490 5488 5487 5486 5484 5482 5481 5479 5477 5475 5474 5472 5471 5470 5469 5468 5467 5467 5466 5466 5466 5466 5466 5466 5466 5465 5464 5462 5460 5458 5457 5456 5454 5453 5452
5549 5547 5544 5542 5540 5538 5536 5534 5532 5529 5527 5525 5524 5522 5520 5518 5516 5514 5512 5511 5509 5507 5506 5504 5502 5500 5498 5496 5494 5493 5491 5489 5488 5486 5484 5482 5481 5479 5478 5477 5475 5473 5471 5469 5467 5467 5465 5464 5463 5462 5461 5460 5460 5460 5459 5459 5459 5459 5460 5459 5459 5457 5456 5453 5452 5450 5449 5448 5446
5542 5540 5537 5535 5533 5531 5529 5527 5525 5522 5521 5519 5517 5515 5513 5512 5510 5508 5506 5504 5502 5501 5499 5498 5496 5493 5492 5490 5488 5487 5485 5483 5481 5480 5478 5476 5475 5473 5472 5471 5469 5467 5465 5463 5462 5460 5459 5458 5457 5456 5455 5454 5454 5454 5453 5453 5453 5453 5453 5453 5453 5452 5450 5448 5447 5445 5443 5442 5441
5536 5533 5530 5528 5526 5524 5522 5520 5518 5516 5514 5512 5510 5508 5507 5505 5503 5502 5500 5497 5496 5494 5492 5491 5489 5487 5485 5483 5482 5480 5478 5477 5475 5473 5472 5470 5469 5467 5466 5465 5463 5461 5459 5457 5456 5454 5453 5452 5452 5450 5449 5449 5448 5448 5448 5447 5447 5447 5447 5447 5447 5446 5445 5443 5442 5440 5438 5437 5436
5529 5527 5524 5521 5519 5517 5515 5513 5511 5509 5507 5505 5504 5502 5500 5498 5497 5495 5493 5491 5489 5487 5486 5484 5483 5481 5479 5477 5476 5474 5472 5471 5469 5467 5466 5464 5463 5461 5460 5458 5457 5455 5453 5451 5450 5448 5447 5447 5446 5445 5444 5443 5443 5442 5442 5442 5441 5441 5441 5441 5440 5440 5439 5438 5437 5435 5434 5432 5431
5523 5520 5517 5514 5512 5510 5508 5506 5504 5502 5501 5499 5497 5496 5494 5492 5490 5488 5487 5484 5482 5481 5479 5477 5476 5475 5473 5471 5469 5468 5467 5465 5463 5461 5460 5458 5457 5455 5454 5453 5451 5450 5448 5446 5444 5443 5442 5441 5440 5439 5438 5438 5437 5437 5437 5436 5436 5435 5435 5435 5434 5434 5433 5432 5432 5431 5429 5428 5426
5517 5514 5511 5508 5505 5503 5501 5499 5498 5496 5494 5492 5490 5489 5487 5486 5484 5482 5480 5478 5476 5474 5472 5471 5470 5468 5467 5465 5463 5462 5461 5459 5457 5455 5454 5452 5451 5450 5448 5447 5446 5444 5443 5441 5439 5438 5437 5436 5435 5434 5433 5432 5432 5432 5432 5431 5431 5430 5430 5429 5428 5427 5427 5427 5427 5426 5425 5423 5422
5510 5507 5504 5501 5499 5497 5495 5492 5491 5489 5488 5486 5484 5482 5481 5479 5477 5475 5473 5472 5470 5468 5466 5465 5463 5462 5461 5459 5457 5456 5455 5453 5452 5450 5448 5447 5445 5444 5443 5442 5441 5439 5438 5436 5434 5433 5432 5431 5430 5429 5428 5427 5427 5426 5426 5426 5425 5425 5424 5423 5423 5422 5422 5421 5421 5421 5420 5419 5417